Regional Weather Roundup
Issued by NWS

Home | Current Version | Previous Version | Graphics & Text | Print | Product List | Glossary On
Versions: 1 2 3 4 5 6 7 8 9 10 11 12 13 14 15 16 17 18 19 20 21 22 23 24 25 26 27 28 29 30 31 32 33 34 35 36 37 38 39 40 41 42 43 44 45 46 47 48 49 50
000
ASUS43 KFSD 240110
RWRSD

WEATHER ROUNDUP FOR SOUTH DAKOTA
NATIONAL WEATHER SERVICE SIOUX FALLS SD
800 PM CDT SUN JUL 23 2017

NOTE: "FAIR" INDICATES FEW OR NO CLOUDS BELOW 12,000 FEET WITH NO
SIGNIFICANT WEATHER AND/OR OBSTRUCTIONS TO VISIBILITY.


SDZ001>005-009-010-012>017-240200-
NORTHWEST AND NORTH CENTRAL SOUTH DAKOTA

CITY           SKY/WX    TMP DP  RH WIND       PRES   REMARKS
BUFFALO          N/A     88  47  24 S8        29.89F
FAITH            N/A     88  49  25 E16G23    29.96S
MOBRIDGE       SUNNY     80  59  48 E9        29.96S
$$

SDZ012>016-024>037-041>051-057-063-072>074-240200-
SOUTHWEST AND SOUTH CENTRAL SOUTH DAKOTA

CITY           SKY/WX    TMP DP  RH WIND       PRES   REMARKS
RAPID CTY ARPT SUNNY     90  46  21 SE18      29.96F
PIERRE         SUNNY     86  51  29 E10       29.95S
CUSTER         CLOUDY    80  47  31 E12G21    30.14F
ELLSWORTH AFB  SUNNY     89  47  23 E14       29.96F
PHILIP         SUNNY     90  49  24 E14       29.93F
PINE RIDGE     SUNNY     87  58  37 E9        29.97F
SPEARFISH      FAIR      86  46  25 SE16G23   30.00S
WINNER         FAIR      87  51  28 E12       29.98S
$$

SDZ004>011-016>023-039-040-240200-
NORTHEAST SOUTH DAKOTA

CITY           SKY/WX    TMP DP  RH WIND       PRES   REMARKS
ABERDEEN       SUNNY     77  61  57 E7        29.98F
WATERTOWN      CLEAR     71  60  68 NE7       30.00S
BROOKINGS      CLEAR     72  59  63 NE8       30.01
SISSETON         N/A     73  61  65 E6        29.99S
$$

SDZ017-020-022-023-036>040-048>070-240200-
SOUTHEAST SOUTH DAKOTA

CITY           SKY/WX    TMP DP  RH WIND       PRES   REMARKS
SIOUX FALLS    PTCLDY    75  63  66 NE8       29.99S
HURON          SUNNY     77  60  55 E6        29.98S
CHAMBERLAIN    SUNNY     85  55  35 NE8       29.98R
MITCHELL       CLEAR     79  59  50 NE7       29.98F
YANKTON        CLEAR     78  61  55 NE8       29.98S
$$

ABBREVIATIONS USED IN REMARKS
   TC - TEMPERATURE IN CELSIUS
  WCI - WIND CHILL INDEX
   HX - HEAT INDEX
  VSB - VISIBILITY





USA.gov is the U.S. government's official web portal to all federal, state and local government web resources and services.